When you browse on this site, cookies collect data to enhance your experience and personalize the content and advertising you see.
Visit our Privacy Policy to learn more. By continuing to use the site, you agree to this use of cookies and data.
  • In Denmark
  • List of Countries
  • For 7 days
  • Water Temperature
  • Satellite Maps
  • Weather Map
  • Weather Widgets
  • user-avatar
    Login

    Hourly Weather Szczawiczne

    Today, 17 February, Sunday

    Time Temperature Precipitation Wind Pressure Humidity
    00:00 +1°C° 0 mm 2 mps 724 mmHg 88%
    01:00 +1°C° 0 mm 2 mps 724 mmHg 87%
    02:00 +1°C° 0 mm 2 mps 724 mmHg 86%
    03:00 +1°C° 0 mm 2 mps 724 mmHg 86%
    04:00 +1°C° 0 mm 2 mps 724 mmHg 85%
    05:00 +1°C° 0 mm 2 mps 724 mmHg 84%
    06:00 +1°C° 0 mm 2 mps 724 mmHg 84%
    07:00 +1°C° 0 mm 2 mps 724 mmHg 83%
    08:00 +3°C° 0 mm 1 mps 724 mmHg 79%
    09:00 +5°C° 0 mm 1 mps 724 mmHg 75%
    10:00 +7°C° 0 mm 1 mps 724 mmHg 71%
    11:00 +8°C° 0 mm 1 mps 724 mmHg 69%
    12:00 +9°C° 0 mm 1 mps 724 mmHg 68%
    13:00 +10°C° 0 mm 1 mps 724 mmHg 66%
    14:00 +9°C° 0 mm 1 mps 723 mmHg 72%
    15:00 +8°C° 0 mm 1 mps 723 mmHg 77%
    16:00 +7°C° 0 mm 1 mps 723 mmHg 83%
    17:00 +6°C° 0 mm 1 mps 723 mmHg 85%
    18:00 +4°C° 0 mm 1 mps 723 mmHg 87%
    19:00 +3°C° 0 mm 1 mps 723 mmHg 89%
    20:00 +3°C° 0 mm 1 mps 723 mmHg 89%
    21:00 +3°C° 0 mm 1 mps 723 mmHg 88%
    22:00 +2°C° 0 mm 1 mps 723 mmHg 87%
    23:00 +2°C° 0 mm 1 mps 723 mmHg 86%

    Tomorrow, 18 February, Monday

    Time Temperature Precipitation Wind Pressure Humidity
    00:00 +2°C° 0 mm 1 mps 723 mmHg 84%
    01:00 +2°C° 0 mm 1 mps 723 mmHg 83%
    02:00 +2°C° 0 mm 1 mps 722 mmHg 81%
    03:00 +2°C° 0 mm 1 mps 722 mmHg 80%
    04:00 +2°C° 0 mm 1 mps 722 mmHg 79%
    05:00 +2°C° 0 mm 1 mps 722 mmHg 78%
    06:00 +2°C° 0 mm 1 mps 722 mmHg 77%
    07:00 +2°C° 0 mm 1 mps 722 mmHg 76%
    08:00 +4°C° 0 mm 1 mps 722 mmHg 72%
    09:00 +6°C° 0 mm 1 mps 722 mmHg 67%
    10:00 +7°C° 0 mm 1 mps 723 mmHg 63%
    11:00 +8°C° 0 mm 1 mps 722 mmHg 62%
    12:00 +9°C° 0 mm 1 mps 722 mmHg 61%
    13:00 +10°C° 0 mm 1 mps 722 mmHg 59%
    14:00 +9°C° 0 mm 1 mps 722 mmHg 66%
    15:00 +8°C° 0 mm 1 mps 721 mmHg 72%
    16:00 +7°C° 0 mm 1 mps 721 mmHg 78%
    17:00 +6°C° 0 mm 1 mps 721 mmHg 81%
    18:00 +4°C° 0 mm 1 mps 721 mmHg 84%
    19:00 +3°C° 0 mm 1 mps 721 mmHg 87%
    20:00 +3°C° 0 mm 1 mps 721 mmHg 87%
    21:00 +3°C° 0 mm 1 mps 721 mmHg 86%
    22:00 +2°C° 0 mm 1 mps 721 mmHg 86%
    23:00 +2°C° 0 mm 1 mps 721 mmHg 85%

    Day after tomorrow, 19 February, Tuesday

    Time Temperature Precipitation Wind Pressure Humidity
    00:00 +2°C° 0 mm 1 mps 721 mmHg 84%
    01:00 +2°C° 0 mm 1 mps 721 mmHg 84%
    02:00 +2°C° 0 mm 1 mps 720 mmHg 83%
    03:00 +2°C° 0 mm 1 mps 720 mmHg 83%
    04:00 +1°C° 0 mm 1 mps 720 mmHg 83%
    05:00 -1°C° 0 mm 2 mps 720 mmHg 83%
    06:00 -1°C° 0 mm 2 mps 720 mmHg 84%
    07:00 -1°C° 0 mm 2 mps 719 mmHg 84%
    08:00 +2°C° 0 mm 2 mps 720 mmHg 80%
    09:00 +4°C° 0 mm 2 mps 720 mmHg 75%
    10:00 +5°C° 0 mm 2 mps 720 mmHg 71%
    11:00 +6°C° 0 mm 2 mps 720 mmHg 69%
    12:00 +7°C° 0 mm 2 mps 719 mmHg 67%
    13:00 +8°C° 0 mm 2 mps 719 mmHg 65%
    14:00 +8°C° 0 mm 2 mps 719 mmHg 69%
    15:00 +7°C° 0 mm 2 mps 718 mmHg 73%
    16:00 +6°C° 0 mm 2 mps 718 mmHg 77%
    17:00 +5°C° 0 mm 2 mps 718 mmHg 82%
    18:00 +3°C° 0 mm 2 mps 718 mmHg 86%
    19:00 +2°C° 0 mm 2 mps 718 mmHg 90%
    20:00 +3°C° 0 mm 1 mps 718 mmHg 90%
    21:00 +2°C° 0 mm 1 mps 718 mmHg 90%
    22:00 +2°C° 0 mm 1 mps 718 mmHg 90%
    23:00 +2°C° 0 mm 1 mps 718 mmHg 88%

    20 February, Wednesday

    Time Temperature Precipitation Wind Pressure Humidity
    00:00 +2°C° 0 mm 1 mps 718 mmHg 87%
    01:00 +2°C° 0 mm 1 mps 718 mmHg 85%
    02:00 +3°C° 0 mm 1 mps 718 mmHg 87%
    03:00 +3°C° 0 mm 1 mps 719 mmHg 89%
    04:00 +2°C° 0 mm 2 mps 719 mmHg 91%
    05:00 +3°C° 0 mm 1 mps 719 mmHg 92%
    06:00 +2°C° 0 mm 1 mps 719 mmHg 93%
    07:00 +2°C° 0 mm 1 mps 719 mmHg 94%
    08:00 +2°C° 0 mm 2 mps 720 mmHg 86%
    09:00 +3°C° 0 mm 3 mps 720 mmHg 77%
    10:00 +4°C° 0 mm 3 mps 721 mmHg 68%
    11:00 +5°C° 0 mm 3 mps 721 mmHg 65%
    12:00 +7°C° 0 mm 3 mps 721 mmHg 62%
    13:00 +7°C° 0 mm 3 mps 721 mmHg 59%
    14:00 +5°C° 0 mm 3 mps 721 mmHg 62%
    15:00 +6°C° 0 mm 2 mps 721 mmHg 66%
    16:00 +5°C° 0 mm 2 mps 721 mmHg 69%
    17:00 +4°C° 0 mm 2 mps 721 mmHg 74%
    18:00 +3°C° 0 mm 2 mps 721 mmHg 79%
    19:00 +2°C° 0 mm 2 mps 721 mmHg 85%
    20:00 +2°C° 0 mm 2 mps 722 mmHg 86%
    21:00 +1°C° 0 mm 2 mps 722 mmHg 87%
    22:00 +1°C° 0 mm 2 mps 722 mmHg 89%
    23:00 +2°C° 0 mm 1 mps 722 mmHg 89%

    21 February, Thursday

    Time Temperature Precipitation Wind Pressure Humidity
    00:00 +2°C° 0 mm 1 mps 722 mmHg 89%
    01:00 +1°C° 0 mm 1 mps 722 mmHg 88%
    02:00 +1°C° 0 mm 1 mps 722 mmHg 87%
    03:00 +2°C° 0 mm 1 mps 722 mmHg 86%
    04:00 +2°C° 0 mm 1 mps 722 mmHg 85%
    05:00 +2°C° 0 mm 1 mps 722 mmHg 85%
    06:00 +2°C° 0 mm 1 mps 722 mmHg 85%
    07:00 +2°C° 0 mm 1 mps 722 mmHg 85%
    08:00 +4°C° 0 mm 1 mps 723 mmHg 79%
    09:00 +5°C° 0 mm 1 mps 723 mmHg 73%
    10:00 +7°C° 0 mm 1 mps 723 mmHg 67%
    11:00 +8°C° 0 mm 1 mps 723 mmHg 66%
    12:00 +8°C° 0 mm 1 mps 723 mmHg 64%
    13:00 +9°C° 0 mm 1 mps 723 mmHg 62%
    14:00 +8°C° 0.1 mm 1 mps 722 mmHg 67%
    15:00 +8°C° 0.1 mm 1 mps 722 mmHg 73%
    16:00 +6°C° 0.1 mm 0 mps 722 mmHg 78%
    17:00 +5°C° 0.2 mm 0 mps 721 mmHg 82%
    18:00 +4°C° 0.2 mm 0 mps 721 mmHg 85%
    19:00 +4°C° 0.2 mm 0 mps 721 mmHg 89%
    20:00 +4°C° 0.3 mm 0 mps 721 mmHg 89%
    21:00 +4°C° 0.3 mm 0 mps 721 mmHg 90%
    22:00 +3°C° 0.3 mm 0 mps 721 mmHg 91%
    23:00 +4°C° 0.4 mm 1 mps 720 mmHg 92%

    22 February, Friday

    Time Temperature Precipitation Wind Pressure Humidity
    00:00 +4°C° 0.4 mm 1 mps 720 mmHg 92%
    01:00 +4°C° 0.4 mm 1 mps 720 mmHg 92%
    02:00 +4°C° 0.3 mm 1 mps 719 mmHg 92%
    03:00 +4°C° 0.3 mm 1 mps 719 mmHg 93%
    04:00 +4°C° 0.3 mm 1 mps 719 mmHg 93%
    05:00 +4°C° 0.6 mm 1 mps 719 mmHg 94%
    06:00 +4°C° 0.6 mm 1 mps 718 mmHg 94%
    07:00 +4°C° 0.6 mm 1 mps 718 mmHg 95%
    08:00 +4°C° 0.2 mm 1 mps 719 mmHg 95%
    09:00 +5°C° 0.2 mm 1 mps 719 mmHg 94%
    10:00 +4°C° 0.2 mm 2 mps 719 mmHg 94%
    11:00 +4°C° 0.2 mm 2 mps 719 mmHg 93%
    12:00 +4°C° 0.2 mm 2 mps 719 mmHg 93%
    13:00 +5°C° 0.2 mm 2 mps 719 mmHg 93%
    14:00 +3°C° 0.6 mm 3 mps 719 mmHg 93%
    15:00 +3°C° 0.6 mm 3 mps 720 mmHg 94%
    16:00 +3°C° 0.6 mm 3 mps 720 mmHg 95%
    17:00 0°C° 0.8 mm 4 mps 721 mmHg 95%
    18:00 -2°C° 0.8 mm 4 mps 722 mmHg 95%
    19:00 -4°C° 0.8 mm 5 mps 723 mmHg 95%
    20:00 -5°C° 0.2 mm 5 mps 724 mmHg 90%
    21:00 -6°C° 0.2 mm 5 mps 725 mmHg 86%
    22:00 -8°C° 0.2 mm 6 mps 726 mmHg 81%
    23:00 -8°C° 0 mm 5 mps 727 mmHg 80%
    Show more